Time,TemperatureF,DewpointF,PressureIn,WindDirection,WindDirectionDegrees,WindSpeedMPH,WindSpeedGustMPH,Humidity,HourlyPrecipIn,Conditions,Clouds,dailyrainin,SolarRadiationWatts/m^2,SoftwareType,DateUTC
2013-05-17 00:01:00,56.6,45.4,29.76,North,0,0.0,0.0,66,0.00,CLR,,0.00,0.0,WeatherDisplay:10.37,2013-05-17 04:01:00,
2013-05-17 00:06:00,56.4,45.6,29.76,North,0,0.0,0.0,67,0.00,CLR,,0.00,0.0,WeatherDisplay:10.37,2013-05-17 04:06:00,
2013-05-17 00:11:00,56.2,45.4,29.76,North,0,0.0,0.0,67,0.00,CLR,,0.00,0.0,WeatherDisplay:10.37,2013-05-17 04:11:00,
2013-05-17 00:16:00,56.0,45.2,29.76,North,0,0.0,0.0,67,0.00,CLR,,0.00,0.0,WeatherDisplay:10.37,2013-05-17 04:16:00,
2013-05-17 00:21:00,55.8,45.0,29.76,North,0,0.0,0.0,67,0.00,CLR,,0.00,0.0,WeatherDisplay:10.37,2013-05-17 04:21:00,
2013-05-17 00:26:00,55.6,44.8,29.76,North,0,0.0,0.0,67,0.00,CLR,,0.00,0.0,WeatherDisplay:10.37,2013-05-17 04:26:00,
2013-05-17 00:31:00,55.5,45.1,29.76,North,0,0.0,0.0,68,0.00,CLR,,0.00,0.0,WeatherDisplay:10.37,2013-05-17 04:31:00,
2013-05-17 00:36:00,55.3,44.9,29.77,North,0,0.0,0.0,68,0.00,CLR,,0.00,0.0,WeatherDisplay:10.37,2013-05-17 04:36:00,
2013-05-17 00:41:00,55.1,44.7,29.77,North,0,0.0,0.0,68,0.00,CLR,,0.00,0.0,WeatherDisplay:10.37,2013-05-17 04:41:00,
2013-05-17 00:46:00,55.0,44.6,29.77,North,0,0.0,0.0,68,0.00,CLR,,0.00,0.0,WeatherDisplay:10.37,2013-05-17 04:46:00,
2013-05-17 00:51:00,54.8,44.0,29.77,North,0,0.0,0.0,67,0.00,CLR,,0.00,0.0,WeatherDisplay:10.37,2013-05-17 04:51:00,
2013-05-17 00:56:00,54.9,44.5,29.78,North,0,0.0,0.0,68,0.00,CLR,,0.00,0.0,WeatherDisplay:10.37,2013-05-17 04:56:00,
2013-05-17 01:01:00,54.9,43.7,29.78,North,0,0.0,0.0,66,0.00,CLR,,0.00,0.0,WeatherDisplay:10.37,2013-05-17 05:01:00,
2013-05-17 01:06:00,55.2,44.0,29.79,North,0,0.0,0.0,66,0.00,CLR,,0.00,0.0,WeatherDisplay:10.37,2013-05-17 05:06:00,
2013-05-17 01:11:00,55.4,44.2,29.79,North,0,0.0,0.0,66,0.00,CLR,,0.00,0.0,WeatherDisplay:10.37,2013-05-17 05:11:00,
2013-05-17 01:16:00,55.7,44.5,29.79,North,0,0.0,0.0,66,0.00,CLR,,0.00,0.0,WeatherDisplay:10.37,2013-05-17 05:16:00,
2013-05-17 01:21:00,55.9,44.7,29.80,North,0,0.0,0.0,66,0.00,CLR,,0.00,0.0,WeatherDisplay:10.37,2013-05-17 05:21:00,
2013-05-17 01:26:00,56.1,44.9,29.79,North,0,0.0,0.0,66,0.00,CLR,,0.00,0.0,WeatherDisplay:10.37,2013-05-17 05:26:00,
2013-05-17 01:31:00,56.2,45.0,29.80,North,0,0.0,0.0,66,0.00,CLR,,0.00,0.0,WeatherDisplay:10.37,2013-05-17 05:31:00,
2013-05-17 01:36:00,56.2,45.4,29.79,North,0,0.0,0.0,67,0.00,CLR,,0.00,0.0,WeatherDisplay:10.37,2013-05-17 05:36:00,
2013-05-17 01:41:00,56.3,45.5,29.80,North,0,0.0,0.0,67,0.00,CLR,,0.00,0.0,WeatherDisplay:10.37,2013-05-17 05:41:00,
2013-05-17 01:46:00,56.3,45.9,29.79,North,0,0.0,0.0,68,0.00,CLR,,0.00,0.0,WeatherDisplay:10.37,2013-05-17 05:46:00,
2013-05-17 01:51:00,56.2,46.2,29.79,North,0,0.0,0.0,69,0.00,CLR,,0.00,0.0,WeatherDisplay:10.37,2013-05-17 05:51:00,
2013-05-17 01:56:00,56.2,45.8,29.79,North,0,0.0,0.0,68,0.00,CLR,,0.00,0.0,WeatherDisplay:10.37,2013-05-17 05:56:00,
2013-05-17 02:01:00,56.0,45.6,29.80,North,0,0.0,0.0,68,0.00,CLR,,0.00,0.0,WeatherDisplay:10.37,2013-05-17 06:01:00,
2013-05-17 02:06:00,55.9,45.5,29.79,North,0,0.0,0.0,68,0.00,CLR,,0.00,0.0,WeatherDisplay:10.37,2013-05-17 06:06:00,
2013-05-17 02:11:00,55.8,45.8,29.80,North,0,0.0,0.0,69,0.00,CLR,,0.00,0.0,WeatherDisplay:10.37,2013-05-17 06:11:00,
2013-05-17 02:16:00,55.7,45.7,29.80,North,0,0.0,0.0,69,0.00,CLR,,0.00,0.0,WeatherDisplay:10.37,2013-05-17 06:16:00,
2013-05-17 02:21:00,55.6,45.2,29.80,North,0,0.0,0.0,68,0.00,CLR,,0.00,0.0,WeatherDisplay:10.37,2013-05-17 06:21:00,
2013-05-17 02:26:00,55.5,45.5,29.81,North,0,0.0,0.0,69,0.00,CLR,,0.00,0.0,WeatherDisplay:10.37,2013-05-17 06:26:00,
2013-05-17 02:31:00,55.3,45.3,29.81,North,0,0.0,0.0,69,0.00,CLR,,0.00,0.0,WeatherDisplay:10.37,2013-05-17 06:31:00,
2013-05-17 02:36:00,55.1,45.1,29.80,North,0,0.0,0.0,69,0.00,CLR,,0.00,0.0,WeatherDisplay:10.37,2013-05-17 06:36:00,
2013-05-17 02:41:00,55.0,45.0,29.81,North,0,0.0,0.0,69,0.00,CLR,,0.00,0.0,WeatherDisplay:10.37,2013-05-17 06:41:00,
2013-05-17 02:46:00,54.8,45.2,29.81,North,0,0.0,0.0,70,0.00,CLR,,0.00,0.0,WeatherDisplay:10.37,2013-05-17 06:46:00,
2013-05-17 02:51:00,54.5,44.9,29.81,North,0,0.0,0.0,70,0.00,CLR,,0.00,0.0,WeatherDisplay:10.37,2013-05-17 06:51:00,
2013-05-17 02:56:00,54.3,45.1,29.81,North,0,0.0,0.0,71,0.00,CLR,,0.00,0.0,WeatherDisplay:10.37,2013-05-17 06:56:00,
2013-05-17 03:01:00,54.1,45.3,29.82,North,0,0.0,0.0,72,0.00,CLR,,0.00,0.0,WeatherDisplay:10.37,2013-05-17 07:01:00,
2013-05-17 03:06:00,53.9,45.1,29.82,North,0,0.0,0.0,72,0.00,CLR,,0.00,0.0,WeatherDisplay:10.37,2013-05-17 07:06:00,
2013-05-17 03:11:00,53.7,44.9,29.82,North,0,0.0,0.0,72,0.00,CLR,,0.00,0.0,WeatherDisplay:10.37,2013-05-17 07:11:00,
2013-05-17 03:16:00,53.5,44.7,29.82,North,0,0.0,0.0,72,0.00,CLR,,0.00,0.0,WeatherDisplay:10.37,2013-05-17 07:16:00,
2013-05-17 03:21:00,53.3,44.5,29.82,North,0,0.0,0.0,72,0.00,CLR,,0.00,0.0,WeatherDisplay:10.37,2013-05-17 07:21:00,
2013-05-17 03:26:00,53.1,44.3,29.82,North,0,0.0,0.0,72,0.00,CLR,,0.00,0.0,WeatherDisplay:10.37,2013-05-17 07:26:00,
2013-05-17 03:31:00,52.9,44.1,29.82,North,0,0.0,0.0,72,0.00,CLR,,0.00,0.0,WeatherDisplay:10.37,2013-05-17 07:31:00,
2013-05-17 03:36:00,52.8,44.0,29.82,North,0,0.0,0.0,72,0.00,CLR,,0.00,0.0,WeatherDisplay:10.37,2013-05-17 07:36:00,
2013-05-17 03:41:00,52.6,43.8,29.82,North,0,0.0,0.0,72,0.00,CLR,,0.00,0.0,WeatherDisplay:10.37,2013-05-17 07:41:00,
2013-05-17 03:46:00,52.4,43.6,29.83,North,0,0.0,0.0,72,0.00,CLR,,0.00,0.0,WeatherDisplay:10.37,2013-05-17 07:46:00,
2013-05-17 03:51:00,52.2,43.4,29.83,North,0,0.0,0.0,72,0.00,CLR,,0.00,0.0,WeatherDisplay:10.37,2013-05-17 07:51:00,
2013-05-17 03:56:00,52.0,43.3,29.84,North,0,0.0,0.0,72,0.00,CLR,,0.00,0.0,WeatherDisplay:10.37,2013-05-17 07:56:00,
2013-05-17 04:01:00,51.8,43.4,29.84,North,0,0.0,0.0,73,0.00,CLR,,0.00,0.0,WeatherDisplay:10.37,2013-05-17 08:01:00,
2013-05-17 04:06:00,51.6,43.2,29.84,North,0,0.0,0.0,73,0.00,CLR,,0.00,0.0,WeatherDisplay:10.37,2013-05-17 08:06:00,
2013-05-17 04:11:00,51.5,43.5,29.84,North,0,0.0,0.0,74,0.00,CLR,,0.00,0.0,WeatherDisplay:10.37,2013-05-17 08:11:00,
2013-05-17 04:16:00,51.3,43.3,29.84,North,0,0.0,0.0,74,0.00,CLR,,0.00,0.0,WeatherDisplay:10.37,2013-05-17 08:16:00,
2013-05-17 04:21:00,51.1,43.1,29.84,North,0,0.0,0.0,74,0.00,CLR,,0.00,0.0,WeatherDisplay:10.37,2013-05-17 08:21:00,
2013-05-17 04:26:00,51.0,43.0,29.85,North,0,0.0,0.0,74,0.00,CLR,,0.00,0.0,WeatherDisplay:10.37,2013-05-17 08:26:00,
2013-05-17 04:31:00,50.8,43.2,29.84,North,0,0.0,0.0,75,0.00,CLR,,0.00,0.0,WeatherDisplay:10.37,2013-05-17 08:31:00,
2013-05-17 04:36:00,50.6,42.6,29.85,North,0,0.0,0.0,74,0.00,CLR,,0.00,0.0,WeatherDisplay:10.37,2013-05-17 08:36:00,
2013-05-17 04:41:00,50.5,42.9,29.85,North,0,0.0,0.0,75,0.00,CLR,,0.00,0.0,WeatherDisplay:10.37,2013-05-17 08:41:00,
2013-05-17 04:46:00,50.3,42.7,29.85,North,0,0.0,0.0,75,0.00,CLR,,0.00,0.0,WeatherDisplay:10.37,2013-05-17 08:46:00,
2013-05-17 04:51:00,50.1,42.5,29.84,North,0,0.0,0.0,75,0.00,CLR,,0.00,0.0,WeatherDisplay:10.37,2013-05-17 08:51:00,
2013-05-17 04:56:00,49.9,42.3,29.84,North,0,0.0,0.0,75,0.00,CLR,,0.00,0.0,WeatherDisplay:10.37,2013-05-17 08:56:00,
2013-05-17 05:01:00,49.8,42.5,29.85,North,0,0.0,0.0,76,0.00,OVC,,0.00,0.0,WeatherDisplay:10.37,2013-05-17 09:01:00,
2013-05-17 05:06:00,49.7,42.4,29.85,North,0,0.0,0.0,76,0.00,OVC,,0.00,0.0,WeatherDisplay:10.37,2013-05-17 09:06:00,
2013-05-17 05:11:00,49.4,42.1,29.85,North,0,0.0,0.0,76,0.00,OVC,,0.00,0.0,WeatherDisplay:10.37,2013-05-17 09:11:00,
2013-05-17 05:16:00,49.3,42.4,29.86,North,0,0.0,0.0,77,0.00,OVC,,0.00,0.0,WeatherDisplay:10.37,2013-05-17 09:16:00,
2013-05-17 05:21:00,49.1,42.2,29.86,North,0,0.0,0.0,77,0.00,OVC,,0.00,0.0,WeatherDisplay:10.37,2013-05-17 09:21:00,
2013-05-17 05:26:00,48.9,42.0,29.86,North,0,0.0,0.0,77,0.00,OVC,,0.00,0.0,WeatherDisplay:10.37,2013-05-17 09:26:00,
2013-05-17 05:31:00,48.7,41.8,29.87,North,0,0.0,0.0,77,0.00,OVC,,0.00,0.0,WeatherDisplay:10.37,2013-05-17 09:31:00,
2013-05-17 05:36:00,48.5,42.0,29.87,North,0,0.0,0.0,78,0.00,BKN,,0.00,5.0,WeatherDisplay:10.37,2013-05-17 09:36:00,
2013-05-17 05:41:00,48.4,41.9,29.87,North,0,0.0,0.0,78,0.00,BKN,,0.00,5.0,WeatherDisplay:10.37,2013-05-17 09:41:00,
2013-05-17 05:46:00,48.2,41.7,29.88,North,0,0.0,0.0,78,0.00,BKN,,0.00,7.0,WeatherDisplay:10.37,2013-05-17 09:46:00,
2013-05-17 05:51:00,48.1,41.6,29.88,North,0,0.0,0.0,78,0.00,BKN,,0.00,9.0,WeatherDisplay:10.37,2013-05-17 09:51:00,
2013-05-17 05:56:00,48.0,41.5,29.89,North,0,0.0,0.0,78,0.00,BKN,,0.00,11.0,WeatherDisplay:10.37,2013-05-17 09:56:00,
2013-05-17 06:01:00,47.9,41.7,29.89,North,0,0.0,0.0,79,0.00,BKN,,0.00,12.0,WeatherDisplay:10.37,2013-05-17 10:01:00,
2013-05-17 06:06:00,47.8,41.6,29.89,North,0,0.0,0.0,79,0.00,BKN,,0.00,12.0,WeatherDisplay:10.37,2013-05-17 10:06:00,
2013-05-17 06:11:00,47.7,41.5,29.90,North,0,0.0,0.0,79,0.00,BKN,,0.00,14.0,WeatherDisplay:10.37,2013-05-17 10:11:00,
2013-05-17 06:16:00,47.7,41.5,29.90,North,0,0.0,0.0,79,0.00,BKN,,0.00,16.0,WeatherDisplay:10.37,2013-05-17 10:16:00,
2013-05-17 06:21:00,47.7,41.8,29.90,North,0,0.0,0.0,80,0.00,BKN,,0.00,19.0,WeatherDisplay:10.37,2013-05-17 10:21:00,
2013-05-17 06:26:00,47.8,41.9,29.91,North,0,0.0,0.0,80,0.00,BKN,,0.00,21.0,WeatherDisplay:10.37,2013-05-17 10:26:00,
2013-05-17 06:31:00,47.9,42.0,29.91,North,0,0.0,0.0,80,0.00,BKN,,0.00,25.0,WeatherDisplay:10.37,2013-05-17 10:31:00,
2013-05-17 06:36:00,48.1,42.2,29.91,North,0,0.0,0.0,80,0.00,BKN,,0.00,23.0,WeatherDisplay:10.37,2013-05-17 10:36:00,
2013-05-17 06:41:00,48.2,42.3,29.91,North,0,0.0,0.0,80,0.00,BKN,,0.00,23.0,WeatherDisplay:10.37,2013-05-17 10:41:00,
2013-05-17 06:46:00,48.4,42.2,29.91,North,0,0.0,0.0,79,0.00,BKN,,0.00,25.0,WeatherDisplay:10.37,2013-05-17 10:46:00,
2013-05-17 06:51:00,48.6,42.4,29.91,North,0,0.0,0.0,79,0.00,BKN,,0.00,26.0,WeatherDisplay:10.37,2013-05-17 10:51:00,
2013-05-17 06:56:00,48.9,42.7,29.91,North,0,0.0,0.0,79,0.00,BKN,,0.00,28.0,WeatherDisplay:10.37,2013-05-17 10:56:00,
2013-05-17 07:01:00,49.2,43.0,29.92,North,0,0.0,0.0,79,0.00,BKN,,0.00,30.0,WeatherDisplay:10.37,2013-05-17 11:01:00,
2013-05-17 07:06:00,49.4,42.8,29.92,North,0,0.0,0.0,78,0.00,BKN,,0.00,30.0,WeatherDisplay:10.37,2013-05-17 11:06:00,
2013-05-17 07:11:00,49.8,42.9,29.92,North,0,0.0,0.0,77,0.00,BKN,,0.00,32.0,WeatherDisplay:10.37,2013-05-17 11:11:00,
2013-05-17 07:16:00,50.1,43.2,29.92,North,0,0.0,0.0,77,0.00,BKN,,0.00,33.0,WeatherDisplay:10.37,2013-05-17 11:16:00,
2013-05-17 07:21:00,50.4,43.5,29.92,North,0,0.0,0.0,77,0.00,BKN,,0.00,33.0,WeatherDisplay:10.37,2013-05-17 11:21:00,
2013-05-17 07:26:00,50.6,43.3,29.93,North,0,0.0,0.0,76,0.00,BKN,,0.00,35.0,WeatherDisplay:10.37,2013-05-17 11:26:00,
2013-05-17 07:31:00,50.8,43.5,29.93,North,0,0.0,0.0,76,0.00,BKN,,0.00,37.0,WeatherDisplay:10.37,2013-05-17 11:31:00,
2013-05-17 07:36:00,51.1,43.4,29.93,North,0,0.0,0.0,75,0.00,BKN,,0.00,39.0,WeatherDisplay:10.37,2013-05-17 11:36:00,
2013-05-17 07:41:00,51.3,43.6,29.93,North,0,0.0,0.0,75,0.00,BKN,,0.00,42.0,WeatherDisplay:10.37,2013-05-17 11:41:00,
2013-05-17 07:46:00,51.5,43.5,29.94,North,0,0.0,0.0,74,0.00,BKN,,0.00,47.0,WeatherDisplay:10.37,2013-05-17 11:46:00,
2013-05-17 07:51:00,51.7,43.3,29.94,North,0,0.0,0.0,73,0.00,BKN,,0.00,58.0,WeatherDisplay:10.37,2013-05-17 11:51:00,
2013-05-17 07:56:00,52.0,43.6,29.94,North,0,0.0,0.0,73,0.00,BKN,,0.00,70.0,WeatherDisplay:10.37,2013-05-17 11:56:00,
2013-05-17 08:01:00,52.3,43.9,29.94,North,0,0.0,0.0,73,0.00,BKN,,0.00,84.0,WeatherDisplay:10.37,2013-05-17 12:01:00,
2013-05-17 08:06:00,52.5,43.7,29.94,North,0,0.0,0.0,72,0.00,BKN,,0.00,77.0,WeatherDisplay:10.37,2013-05-17 12:06:00,
2013-05-17 08:11:00,52.7,43.6,29.94,North,0,0.0,0.0,71,0.00,BKN,,0.00,90.0,WeatherDisplay:10.37,2013-05-17 12:11:00,
2013-05-17 08:16:00,53.0,43.8,29.95,North,0,0.0,0.0,71,0.00,BKN,,0.00,95.0,WeatherDisplay:10.37,2013-05-17 12:16:00,
2013-05-17 08:21:00,53.1,43.9,29.95,North,0,0.0,0.0,71,0.00,BKN,,0.00,127.0,WeatherDisplay:10.37,2013-05-17 12:21:00,
2013-05-17 08:26:00,53.4,43.9,29.95,North,0,0.0,0.0,70,0.00,BKN,,0.00,258.0,WeatherDisplay:10.37,2013-05-17 12:26:00,
2013-05-17 08:31:00,53.6,44.0,29.95,North,0,0.0,0.0,70,0.00,BKN,,0.00,220.0,WeatherDisplay:10.37,2013-05-17 12:31:00,
2013-05-17 08:36:00,53.9,44.0,29.95,North,0,0.0,0.0,69,0.00,SCT,,0.00,234.0,WeatherDisplay:10.37,2013-05-17 12:36:00,
2013-05-17 08:41:00,54.2,44.2,29.95,North,0,0.0,0.0,69,0.00,BKN,,0.00,269.0,WeatherDisplay:10.37,2013-05-17 12:41:00,
2013-05-17 08:46:00,54.5,44.5,29.95,North,0,0.0,0.0,69,0.00,BKN,,0.00,279.0,WeatherDisplay:10.37,2013-05-17 12:46:00,
2013-05-17 08:51:00,54.7,44.7,29.95,North,0,0.0,0.0,69,0.00,BKN,,0.00,202.0,WeatherDisplay:10.37,2013-05-17 12:51:00,
2013-05-17 08:56:00,54.9,44.5,29.95,North,0,0.0,0.0,68,0.00,BKN,,0.00,269.0,WeatherDisplay:10.37,2013-05-17 12:56:00,
2013-05-17 09:01:00,55.2,45.2,29.95,North,0,0.0,0.0,69,0.00,SCT,,0.00,508.0,WeatherDisplay:10.37,2013-05-17 13:01:00,
2013-05-17 09:06:00,55.5,45.1,29.95,North,0,0.0,0.0,68,0.00,FEW,,0.00,610.0,WeatherDisplay:10.37,2013-05-17 13:06:00,
2013-05-17 09:11:00,55.9,45.1,29.95,North,0,0.0,0.0,67,0.00,CLR,,0.00,622.0,WeatherDisplay:10.37,2013-05-17 13:11:00,
2013-05-17 09:16:00,56.4,45.6,29.95,North,0,0.0,0.0,67,0.00,CLR,,0.00,664.0,WeatherDisplay:10.37,2013-05-17 13:16:00,
2013-05-17 09:21:00,57.0,44.9,29.94,North,0,0.0,0.0,64,0.00,CLR,,0.00,677.0,WeatherDisplay:10.37,2013-05-17 13:21:00,
2013-05-17 09:26:00,57.5,45.0,29.95,North,0,0.0,0.0,63,0.00,CLR,,0.00,654.0,WeatherDisplay:10.37,2013-05-17 13:26:00,
2013-05-17 09:31:00,58.3,44.9,29.95,North,0,0.0,0.0,61,0.00,CLR,,0.00,694.0,WeatherDisplay:10.37,2013-05-17 13:31:00,
2013-05-17 09:36:00,58.9,45.0,29.95,North,0,0.0,0.0,60,0.00,CLR,,0.00,700.0,WeatherDisplay:10.37,2013-05-17 13:36:00,
2013-05-17 09:41:00,59.5,44.7,29.95,North,0,0.0,0.0,58,0.00,CLR,,0.00,703.0,WeatherDisplay:10.37,2013-05-17 13:41:00,
2013-05-17 09:46:00,60.2,46.7,29.95,North,0,0.0,0.0,61,0.00,CLR,,0.00,735.0,WeatherDisplay:10.37,2013-05-17 13:46:00,
2013-05-17 09:51:00,60.8,46.4,29.96,North,0,0.0,0.0,59,0.00,CLR,,0.00,772.0,WeatherDisplay:10.37,2013-05-17 13:51:00,
2013-05-17 09:56:00,61.1,45.7,29.96,North,0,0.0,0.0,57,0.00,FEW,,0.00,729.0,WeatherDisplay:10.37,2013-05-17 13:56:00,
2013-05-17 10:01:00,61.5,46.1,29.97,North,0,0.0,0.0,57,0.00,CLR,,0.00,789.0,WeatherDisplay:10.37,2013-05-17 14:01:00,
2013-05-17 10:06:00,62.0,46.1,29.97,North,0,0.0,0.0,56,0.00,FEW,,0.00,538.0,WeatherDisplay:10.37,2013-05-17 14:06:00,
2013-05-17 10:11:00,62.3,46.4,29.97,North,0,0.0,0.0,56,0.00,FEW,,0.00,737.0,WeatherDisplay:10.37,2013-05-17 14:11:00,
2013-05-17 10:16:00,62.8,46.4,29.97,North,0,0.0,0.0,55,0.00,CLR,,0.00,805.0,WeatherDisplay:10.37,2013-05-17 14:16:00,
2013-05-17 10:21:00,63.5,46.6,29.97,North,0,0.0,0.0,54,0.00,FEW,,0.00,656.0,WeatherDisplay:10.37,2013-05-17 14:21:00,
2013-05-17 10:26:00,63.9,45.9,29.97,North,0,0.0,0.0,52,0.00,FEW,,0.00,749.0,WeatherDisplay:10.37,2013-05-17 14:26:00,
2013-05-17 10:31:00,64.2,45.7,29.97,North,0,0.0,0.0,51,0.00,FEW,,0.00,802.0,WeatherDisplay:10.37,2013-05-17 14:31:00,
2013-05-17 10:36:00,64.7,47.2,29.98,North,0,0.0,0.0,53,0.00,FEW,,0.00,819.0,WeatherDisplay:10.37,2013-05-17 14:36:00,
2013-05-17 10:41:00,65.2,47.6,29.97,North,0,0.0,0.0,53,0.00,SCT,,0.00,209.0,WeatherDisplay:10.37,2013-05-17 14:41:00,
2013-05-17 10:46:00,65.6,47.5,29.98,North,0,0.0,0.0,52,0.00,FEW,,0.00,789.0,WeatherDisplay:10.37,2013-05-17 14:46:00,
2013-05-17 10:51:00,65.7,46.5,29.98,North,0,0.0,0.0,50,0.00,CLR,,0.00,874.0,WeatherDisplay:10.37,2013-05-17 14:51:00,
2013-05-17 10:56:00,66.0,48.4,29.98,North,0,0.0,0.0,53,0.00,CLR,,0.00,828.0,WeatherDisplay:10.37,2013-05-17 14:56:00,
2013-05-17 11:01:00,66.4,47.2,29.98,North,0,0.0,0.0,50,0.00,CLR,,0.00,951.0,WeatherDisplay:10.37,2013-05-17 15:01:00,
2013-05-17 11:06:00,66.7,46.9,29.98,North,0,0.0,0.0,49,0.00,CLR,,0.00,991.0,WeatherDisplay:10.37,2013-05-17 15:06:00,
2013-05-17 11:11:00,67.2,48.5,29.98,North,0,0.0,0.0,51,0.00,CLR,,0.00,947.0,WeatherDisplay:10.37,2013-05-17 15:11:00,
2013-05-17 11:16:00,67.9,49.6,29.98,North,0,0.0,0.0,52,0.00,CLR,,0.00,949.0,WeatherDisplay:10.37,2013-05-17 15:16:00,
2013-05-17 11:21:00,68.6,48.1,29.98,North,0,0.0,0.0,48,0.00,CLR,,0.00,998.0,WeatherDisplay:10.37,2013-05-17 15:21:00,
2013-05-17 11:26:00,68.5,46.3,29.98,North,0,0.0,0.0,45,0.00,CLR,,0.00,1023.0,WeatherDisplay:10.37,2013-05-17 15:26:00,
2013-05-17 11:31:00,67.5,46.6,29.98,North,0,0.0,0.0,47,0.00,CLR,,0.00,1067.0,WeatherDisplay:10.37,2013-05-17 15:31:00,
2013-05-17 11:36:00,67.0,46.1,29.98,North,0,0.0,0.0,47,0.00,CLR,,0.00,1086.0,WeatherDisplay:10.37,2013-05-17 15:36:00,
2013-05-17 11:41:00,65.9,46.7,29.98,North,0,0.0,0.0,50,0.00,CLR,,0.00,1072.0,WeatherDisplay:10.37,2013-05-17 15:41:00,
2013-05-17 11:46:00,66.3,46.0,29.98,North,0,0.0,0.0,48,0.00,CLR,,0.00,1002.0,WeatherDisplay:10.37,2013-05-17 15:46:00,
2013-05-17 11:51:00,67.0,48.8,29.97,North,0,0.0,0.0,52,0.00,CLR,,0.00,1005.0,WeatherDisplay:10.37,2013-05-17 15:51:00,
2013-05-17 11:56:00,67.4,47.6,29.97,North,0,0.0,0.0,49,0.00,CLR,,0.00,1055.0,WeatherDisplay:10.37,2013-05-17 15:56:00,
2013-05-17 12:01:00,67.6,46.1,29.98,North,0,0.0,0.0,46,0.00,CLR,,0.00,1028.0,WeatherDisplay:10.37,2013-05-17 16:01:00,
2013-05-17 12:06:00,67.5,48.2,29.98,North,0,0.0,0.0,50,0.00,CLR,,0.00,1058.0,WeatherDisplay:10.37,2013-05-17 16:06:00,
2013-05-17 12:11:00,67.9,48.0,29.98,North,0,0.0,0.0,49,0.00,CLR,,0.00,1014.0,WeatherDisplay:10.37,2013-05-17 16:11:00,
2013-05-17 12:16:00,68.6,46.4,29.98,North,0,0.0,0.0,45,0.00,CLR,,0.00,1058.0,WeatherDisplay:10.37,2013-05-17 16:16:00,
2013-05-17 12:21:00,67.9,46.9,29.98,North,0,0.0,0.0,47,0.00,CLR,,0.00,1097.0,WeatherDisplay:10.37,2013-05-17 16:21:00,
2013-05-17 12:26:00,67.7,48.4,29.97,North,0,0.0,0.0,50,0.00,FEW,,0.00,264.0,WeatherDisplay:10.37,2013-05-17 16:26:00,
2013-05-17 12:31:00,67.1,47.3,29.97,North,0,0.0,0.0,49,0.00,BKN,,0.00,1195.0,WeatherDisplay:10.37,2013-05-17 16:31:00,
2013-05-17 12:36:00,67.5,46.0,29.97,North,0,0.0,0.0,46,0.00,CLR,,0.00,1195.0,WeatherDisplay:10.37,2013-05-17 16:36:00,
2013-05-17 12:41:00,67.8,46.8,29.97,North,0,0.0,0.0,47,0.00,CLR,,0.00,1232.0,WeatherDisplay:10.37,2013-05-17 16:41:00,
2013-05-17 12:46:00,68.6,47.0,29.97,North,0,0.0,0.0,46,0.00,CLR,,0.00,1039.0,WeatherDisplay:10.37,2013-05-17 16:46:00,
2013-05-17 12:51:00,68.9,48.9,29.97,North,0,0.0,0.0,49,0.00,CLR,,0.00,1269.0,WeatherDisplay:10.37,2013-05-17 16:51:00,
2013-05-17 12:56:00,68.3,47.3,29.98,North,0,0.0,0.0,47,0.00,CLR,,0.00,1004.0,WeatherDisplay:10.37,2013-05-17 16:56:00,
2013-05-17 13:01:00,68.6,47.6,29.98,North,0,0.0,0.0,47,0.00,CLR,,0.00,1125.0,WeatherDisplay:10.37,2013-05-17 17:01:00,
2013-05-17 13:06:00,68.2,47.2,29.98,North,0,0.0,0.0,47,0.00,CLR,,0.00,1123.0,WeatherDisplay:10.37,2013-05-17 17:06:00,
2013-05-17 13:11:00,68.3,47.8,29.98,North,0,0.0,0.0,48,0.00,CLR,,0.00,1123.0,WeatherDisplay:10.37,2013-05-17 17:11:00,
2013-05-17 13:16:00,69.4,47.7,29.98,North,0,0.0,0.0,46,0.00,CLR,,0.00,1167.0,WeatherDisplay:10.37,2013-05-17 17:16:00,
2013-05-17 13:21:00,69.0,46.8,29.98,North,0,0.0,0.0,45,0.00,SCT,,0.00,390.0,WeatherDisplay:10.37,2013-05-17 17:21:00,
2013-05-17 13:26:00,68.1,48.2,29.98,North,0,0.0,0.0,49,0.00,BKN,,0.00,258.0,WeatherDisplay:10.37,2013-05-17 17:26:00,
2013-05-17 13:31:00,68.9,49.5,29.98,North,0,0.0,0.0,50,0.00,FEW,,0.00,1116.0,WeatherDisplay:10.37,2013-05-17 17:31:00,
2013-05-17 13:36:00,68.7,47.1,29.98,North,0,0.0,0.0,46,0.00,CLR,,0.00,1201.0,WeatherDisplay:10.37,2013-05-17 17:36:00,
2013-05-17 13:41:00,69.0,49.0,29.98,North,0,0.0,0.0,49,0.00,FEW,,0.00,1044.0,WeatherDisplay:10.37,2013-05-17 17:41:00,
2013-05-17 13:46:00,69.7,47.4,29.98,North,0,0.0,0.0,45,0.00,CLR,,0.00,1042.0,WeatherDisplay:10.37,2013-05-17 17:46:00,
2013-05-17 13:51:00,69.5,48.4,29.98,North,0,0.0,0.0,47,0.00,CLR,,0.00,1129.0,WeatherDisplay:10.37,2013-05-17 17:51:00,
2013-05-17 13:56:00,70.3,47.9,29.99,North,0,0.0,0.0,45,0.00,CLR,,0.00,1032.0,WeatherDisplay:10.37,2013-05-17 17:56:00,
2013-05-17 14:01:00,69.9,47.0,29.98,North,0,0.0,0.0,44,0.00,CLR,,0.00,1104.0,WeatherDisplay:10.37,2013-05-17 18:01:00,
2013-05-17 14:06:00,69.6,46.1,29.99,North,0,0.0,0.0,43,0.00,CLR,,0.00,979.0,WeatherDisplay:10.37,2013-05-17 18:06:00,
2013-05-17 14:11:00,69.2,48.7,29.99,North,0,0.0,0.0,48,0.00,CLR,,0.00,1056.0,WeatherDisplay:10.37,2013-05-17 18:11:00,
2013-05-17 14:16:00,69.0,46.2,29.99,North,0,0.0,0.0,44,0.00,CLR,,0.00,965.0,WeatherDisplay:10.37,2013-05-17 18:16:00,
2013-05-17 14:21:00,69.8,46.3,29.99,North,0,0.0,0.0,43,0.00,CLR,,0.00,951.0,WeatherDisplay:10.37,2013-05-17 18:21:00,
2013-05-17 14:26:00,69.8,46.3,30.00,North,0,0.0,0.0,43,0.00,CLR,,0.00,895.0,WeatherDisplay:10.37,2013-05-17 18:26:00,
2013-05-17 14:31:00,69.7,46.2,29.99,North,0,0.0,0.0,43,0.00,CLR,,0.00,930.0,WeatherDisplay:10.37,2013-05-17 18:31:00,
2013-05-17 14:36:00,70.1,47.2,30.00,North,0,0.0,0.0,44,0.00,CLR,,0.00,933.0,WeatherDisplay:10.37,2013-05-17 18:36:00,
2013-05-17 14:41:00,70.2,47.9,30.00,North,0,0.0,0.0,45,0.00,CLR,,0.00,881.0,WeatherDisplay:10.37,2013-05-17 18:41:00,
2013-05-17 14:46:00,70.3,47.3,30.00,North,0,0.0,0.0,44,0.00,CLR,,0.00,900.0,WeatherDisplay:10.37,2013-05-17 18:46:00,
2013-05-17 14:51:00,70.2,46.0,30.00,North,0,0.0,0.0,42,0.00,CLR,,0.00,875.0,WeatherDisplay:10.37,2013-05-17 18:51:00,
2013-05-17 14:56:00,70.4,46.2,30.00,North,0,0.0,0.0,42,0.00,CLR,,0.00,912.0,WeatherDisplay:10.37,2013-05-17 18:56:00,
2013-05-17 15:01:00,70.4,48.6,30.00,North,0,0.0,0.0,46,0.00,CLR,,0.00,888.0,WeatherDisplay:10.37,2013-05-17 19:01:00,
2013-05-17 15:06:00,70.2,46.6,30.00,North,0,0.0,0.0,43,0.00,CLR,,0.00,635.0,WeatherDisplay:10.37,2013-05-17 19:06:00,
2013-05-17 15:11:00,69.0,47.4,30.00,North,0,0.0,0.0,46,0.00,FEW,,0.00,779.0,WeatherDisplay:10.37,2013-05-17 19:11:00,
2013-05-17 15:16:00,69.6,46.7,30.00,North,0,0.0,0.0,44,0.00,CLR,,0.00,809.0,WeatherDisplay:10.37,2013-05-17 19:16:00,
2013-05-17 15:21:00,69.8,45.7,30.00,North,0,0.0,0.0,42,0.00,CLR,,0.00,860.0,WeatherDisplay:10.37,2013-05-17 19:21:00,
2013-05-17 15:26:00,69.7,48.0,30.00,North,0,0.0,0.0,46,0.00,CLR,,0.00,812.0,WeatherDisplay:10.37,2013-05-17 19:26:00,
2013-05-17 15:31:00,70.1,47.8,30.00,North,0,0.0,0.0,45,0.00,CLR,,0.00,803.0,WeatherDisplay:10.37,2013-05-17 19:31:00,
2013-05-17 15:36:00,70.4,45.6,30.01,North,0,0.0,0.0,41,0.00,CLR,,0.00,802.0,WeatherDisplay:10.37,2013-05-17 19:36:00,
2013-05-17 15:41:00,70.0,46.5,30.01,North,0,0.0,0.0,43,0.00,CLR,,0.00,809.0,WeatherDisplay:10.37,2013-05-17 19:41:00,
2013-05-17 15:46:00,70.2,46.0,30.01,North,0,0.0,0.0,42,0.00,CLR,,0.00,800.0,WeatherDisplay:10.37,2013-05-17 19:46:00,
2013-05-17 15:51:00,70.4,44.9,30.01,North,0,0.0,0.0,40,0.00,SCT,,0.00,88.0,WeatherDisplay:10.37,2013-05-17 19:51:00,
2013-05-17 15:56:00,69.0,44.3,30.00,North,0,0.0,0.0,41,0.00,BKN,,0.00,768.0,WeatherDisplay:10.37,2013-05-17 19:56:00,
2013-05-17 16:01:00,68.8,47.2,30.01,North,0,0.0,0.0,46,0.00,CLR,,0.00,803.0,WeatherDisplay:10.37,2013-05-17 20:01:00,
2013-05-17 16:06:00,68.8,45.4,30.01,North,0,0.0,0.0,43,0.00,SCT,,0.00,244.0,WeatherDisplay:10.37,2013-05-17 20:06:00,
2013-05-17 16:11:00,68.3,46.7,30.01,North,0,0.0,0.0,46,0.00,BKN,,0.00,156.0,WeatherDisplay:10.37,2013-05-17 20:11:00,
2013-05-17 16:16:00,67.7,45.6,30.01,North,0,0.0,0.0,45,0.00,BKN,,0.00,120.0,WeatherDisplay:10.37,2013-05-17 20:16:00,
2013-05-17 16:21:00,67.2,43.9,30.00,North,0,0.0,0.0,43,0.00,SCT,,0.00,132.0,WeatherDisplay:10.37,2013-05-17 20:21:00,
2013-05-17 16:26:00,67.1,45.0,30.01,North,0,0.0,0.0,45,0.00,BKN,,0.00,137.0,WeatherDisplay:10.37,2013-05-17 20:26:00,
2013-05-17 16:31:00,67.1,46.7,30.01,North,0,0.0,0.0,48,0.00,SCT,,0.00,146.0,WeatherDisplay:10.37,2013-05-17 20:31:00,
2013-05-17 16:36:00,67.1,45.6,30.01,North,0,0.0,0.0,46,0.00,BKN,,0.00,90.0,WeatherDisplay:10.37,2013-05-17 20:36:00,
2013-05-17 16:41:00,67.0,46.1,30.01,North,0,0.0,0.0,47,0.00,BKN,,0.00,127.0,WeatherDisplay:10.37,2013-05-17 20:41:00,
2013-05-17 16:46:00,67.0,44.4,30.01,North,0,0.0,0.0,44,0.00,BKN,,0.00,176.0,WeatherDisplay:10.37,2013-05-17 20:46:00,
2013-05-17 16:51:00,67.4,45.3,30.02,North,0,0.0,0.0,45,0.00,BKN,,0.00,144.0,WeatherDisplay:10.37,2013-05-17 20:51:00,
2013-05-17 16:56:00,67.3,44.6,30.02,North,0,0.0,0.0,44,0.00,BKN,,0.00,141.0,WeatherDisplay:10.37,2013-05-17 20:56:00,
2013-05-17 17:01:00,67.2,45.1,30.03,North,0,0.0,0.0,45,0.00,BKN,,0.00,125.0,WeatherDisplay:10.37,2013-05-17 21:01:00,
2013-05-17 17:06:00,67.3,44.0,30.02,North,0,0.0,0.0,43,0.00,BKN,,0.00,281.0,WeatherDisplay:10.37,2013-05-17 21:06:00,
2013-05-17 17:11:00,67.3,44.6,30.03,North,0,0.0,0.0,44,0.00,BKN,,0.00,74.0,WeatherDisplay:10.37,2013-05-17 21:11:00,
2013-05-17 17:16:00,67.2,45.1,30.03,North,0,0.0,0.0,45,0.00,BKN,,0.00,86.0,WeatherDisplay:10.37,2013-05-17 21:16:00,
2013-05-17 17:21:00,66.9,46.6,30.03,North,0,0.0,0.0,48,0.00,BKN,,0.00,51.0,WeatherDisplay:10.37,2013-05-17 21:21:00,
2013-05-17 17:26:00,66.8,47.0,30.03,North,0,0.0,0.0,49,0.00,BKN,,0.00,109.0,WeatherDisplay:10.37,2013-05-17 21:26:00,
2013-05-17 17:31:00,66.5,45.1,30.03,North,0,0.0,0.0,46,0.00,BKN,,0.00,118.0,WeatherDisplay:10.37,2013-05-17 21:31:00,
2013-05-17 17:36:00,66.5,43.9,30.04,North,0,0.0,0.0,44,0.00,BKN,,0.00,135.0,WeatherDisplay:10.37,2013-05-17 21:36:00,
2013-05-17 17:41:00,66.5,44.5,30.04,North,0,0.0,0.0,45,0.00,BKN,,0.00,195.0,WeatherDisplay:10.37,2013-05-17 21:41:00,
2013-05-17 17:46:00,66.2,44.2,30.04,North,0,0.0,0.0,45,0.00,SCT,,0.00,62.0,WeatherDisplay:10.37,2013-05-17 21:46:00,
2013-05-17 17:51:00,66.3,44.9,30.04,North,0,0.0,0.0,46,0.00,BKN,,0.00,44.0,WeatherDisplay:10.37,2013-05-17 21:51:00,
2013-05-17 17:56:00,66.3,45.5,30.04,North,0,0.0,0.0,47,0.00,BKN,,0.00,67.0,WeatherDisplay:10.37,2013-05-17 21:56:00,
2013-05-17 18:01:00,66.0,44.6,30.04,North,0,0.0,0.0,46,0.00,BKN,,0.00,60.0,WeatherDisplay:10.37,2013-05-17 22:01:00,
2013-05-17 18:06:00,65.9,45.6,30.04,North,0,0.0,0.0,48,0.00,BKN,,0.00,53.0,WeatherDisplay:10.37,2013-05-17 22:06:00,
2013-05-17 18:11:00,65.7,46.0,30.05,North,0,0.0,0.0,49,0.00,BKN,,0.00,47.0,WeatherDisplay:10.37,2013-05-17 22:11:00,
2013-05-17 18:16:00,65.7,43.8,30.05,North,0,0.0,0.0,45,0.00,BKN,,0.00,46.0,WeatherDisplay:10.37,2013-05-17 22:16:00,
2013-05-17 18:21:00,65.7,44.3,30.05,North,0,0.0,0.0,46,0.00,BKN,,0.00,47.0,WeatherDisplay:10.37,2013-05-17 22:21:00,
2013-05-17 18:26:00,65.7,46.0,30.05,North,0,0.0,0.0,49,0.00,BKN,,0.00,53.0,WeatherDisplay:10.37,2013-05-17 22:26:00,
2013-05-17 18:31:00,65.6,45.4,30.05,North,0,0.0,0.0,48,0.00,BKN,,0.00,54.0,WeatherDisplay:10.37,2013-05-17 22:31:00,
2013-05-17 18:36:00,65.5,44.7,30.06,North,0,0.0,0.0,47,0.00,BKN,,0.00,40.0,WeatherDisplay:10.37,2013-05-17 22:36:00,
2013-05-17 18:41:00,65.4,45.2,30.06,North,0,0.0,0.0,48,0.00,BKN,,0.00,37.0,WeatherDisplay:10.37,2013-05-17 22:41:00,
2013-05-17 18:46:00,65.2,45.5,30.06,North,0,0.0,0.0,49,0.00,BKN,,0.00,25.0,WeatherDisplay:10.37,2013-05-17 22:46:00,
2013-05-17 18:51:00,65.1,46.0,30.06,North,0,0.0,0.0,50,0.00,BKN,,0.00,30.0,WeatherDisplay:10.37,2013-05-17 22:51:00,
2013-05-17 18:56:00,64.8,45.7,30.07,North,0,0.0,0.0,50,0.00,BKN,,0.00,28.0,WeatherDisplay:10.37,2013-05-17 22:56:00,
2013-05-17 19:01:00,64.5,42.7,30.07,North,0,0.0,0.0,45,0.00,BKN,,0.00,23.0,WeatherDisplay:10.37,2013-05-17 23:01:00,
2013-05-17 19:06:00,64.4,43.2,30.07,North,0,0.0,0.0,46,0.00,BKN,,0.00,23.0,WeatherDisplay:10.37,2013-05-17 23:06:00,
2013-05-17 19:11:00,64.2,45.2,30.07,North,0,0.0,0.0,50,0.00,BKN,,0.00,25.0,WeatherDisplay:10.37,2013-05-17 23:11:00,
2013-05-17 19:16:00,64.0,43.4,30.08,North,0,0.0,0.0,47,0.00,BKN,,0.00,28.0,WeatherDisplay:10.37,2013-05-17 23:16:00,
2013-05-17 19:21:00,63.8,43.2,30.08,North,0,0.0,0.0,47,0.00,BKN,,0.00,23.0,WeatherDisplay:10.37,2013-05-17 23:21:00,
2013-05-17 19:26:00,63.6,42.4,30.08,North,0,0.0,0.0,46,0.00,BKN,,0.00,14.0,WeatherDisplay:10.37,2013-05-17 23:26:00,
2013-05-17 19:31:00,63.5,42.9,30.08,North,0,0.0,0.0,47,0.00,BKN,,0.00,9.0,WeatherDisplay:10.37,2013-05-17 23:31:00,
2013-05-17 19:36:00,63.3,43.8,30.08,North,0,0.0,0.0,49,0.00,BKN,,0.00,7.0,WeatherDisplay:10.37,2013-05-17 23:36:00,
2013-05-17 19:41:00,63.0,43.5,30.08,North,0,0.0,0.0,49,0.00,BKN,,0.00,7.0,WeatherDisplay:10.37,2013-05-17 23:41:00,
2013-05-17 19:46:00,62.8,42.8,30.08,North,0,0.0,0.0,48,0.00,BKN,,0.00,5.0,WeatherDisplay:10.37,2013-05-17 23:46:00,
2013-05-17 19:51:00,62.6,42.6,30.09,North,0,0.0,0.0,48,0.00,BKN,,0.00,5.0,WeatherDisplay:10.37,2013-05-17 23:51:00,
2013-05-17 19:56:00,62.3,42.9,30.09,North,0,0.0,0.0,49,0.00,OVC,,0.00,0.0,WeatherDisplay:10.37,2013-05-17 23:56:00,
2013-05-17 20:01:00,62.0,42.6,30.09,North,0,0.0,0.0,49,0.00,OVC,,0.00,0.0,WeatherDisplay:10.37,2013-05-18 00:01:00,
2013-05-17 20:06:00,61.8,43.0,30.10,North,0,0.0,0.0,50,0.00,OVC,,0.00,0.0,WeatherDisplay:10.37,2013-05-18 00:06:00,
2013-05-17 20:11:00,61.5,42.7,30.10,North,0,0.0,0.0,50,0.00,OVC,,0.00,0.0,WeatherDisplay:10.37,2013-05-18 00:11:00,
2013-05-17 20:16:00,61.1,42.8,30.10,North,0,0.0,0.0,51,0.00,OVC,,0.00,0.0,WeatherDisplay:10.37,2013-05-18 00:16:00,
2013-05-17 20:21:00,60.8,43.1,30.10,North,0,0.0,0.0,52,0.00,OVC,,0.00,0.0,WeatherDisplay:10.37,2013-05-18 00:21:00,
2013-05-17 20:26:00,60.5,42.8,30.10,North,0,0.0,0.0,52,0.00,OVC,,0.00,0.0,WeatherDisplay:10.37,2013-05-18 00:26:00,
2013-05-17 20:31:00,60.1,42.9,30.11,North,0,0.0,0.0,53,0.00,OVC,,0.00,0.0,WeatherDisplay:10.37,2013-05-18 00:31:00,
2013-05-17 20:36:00,59.8,43.1,30.11,North,0,0.0,0.0,54,0.00,CLR,,0.00,0.0,WeatherDisplay:10.37,2013-05-18 00:36:00,
2013-05-17 20:41:00,59.5,43.8,30.11,North,0,0.0,0.0,56,0.00,CLR,,0.00,0.0,WeatherDisplay:10.37,2013-05-18 00:41:00,
2013-05-17 20:46:00,59.2,43.5,30.12,North,0,0.0,0.0,56,0.00,CLR,,0.00,0.0,WeatherDisplay:10.37,2013-05-18 00:46:00,
2013-05-17 20:51:00,58.9,43.7,30.12,North,0,0.0,0.0,57,0.00,CLR,,0.00,0.0,WeatherDisplay:10.37,2013-05-18 00:51:00,
2013-05-17 20:56:00,58.5,43.8,30.12,North,0,0.0,0.0,58,0.00,CLR,,0.00,0.0,WeatherDisplay:10.37,2013-05-18 00:56:00,
2013-05-17 21:01:00,58.2,43.9,30.13,North,0,0.0,0.0,59,0.00,CLR,,0.00,0.0,WeatherDisplay:10.37,2013-05-18 01:01:00,
2013-05-17 21:06:00,57.9,43.7,30.13,North,0,0.0,0.0,59,0.00,CLR,,0.00,0.0,WeatherDisplay:10.37,2013-05-18 01:06:00,
2013-05-17 21:11:00,57.5,44.1,30.13,North,0,0.0,0.0,61,0.00,CLR,,0.00,0.0,WeatherDisplay:10.37,2013-05-18 01:11:00,
2013-05-17 21:16:00,57.2,43.9,30.14,North,0,0.0,0.0,61,0.00,CLR,,0.00,0.0,WeatherDisplay:10.37,2013-05-18 01:16:00,
2013-05-17 21:21:00,56.8,43.9,30.14,North,0,0.0,0.0,62,0.00,CLR,,0.00,0.0,WeatherDisplay:10.37,2013-05-18 01:21:00,
2013-05-17 21:26:00,56.5,44.5,30.14,North,0,0.0,0.0,64,0.00,CLR,,0.00,0.0,WeatherDisplay:10.37,2013-05-18 01:26:00,
2013-05-17 21:31:00,56.0,44.0,30.15,North,0,0.0,0.0,64,0.00,CLR,,0.00,0.0,WeatherDisplay:10.37,2013-05-18 01:31:00,
2013-05-17 21:36:00,55.6,44.0,30.15,North,0,0.0,0.0,65,0.00,CLR,,0.00,0.0,WeatherDisplay:10.37,2013-05-18 01:36:00,
2013-05-17 21:41:00,55.2,44.0,30.16,North,0,0.0,0.0,66,0.00,CLR,,0.00,0.0,WeatherDisplay:10.37,2013-05-18 01:41:00,
2013-05-17 21:46:00,54.8,43.7,30.16,North,0,0.0,0.0,66,0.00,CLR,,0.00,0.0,WeatherDisplay:10.37,2013-05-18 01:46:00,
2013-05-17 21:51:00,54.5,43.8,30.16,North,0,0.0,0.0,67,0.00,CLR,,0.00,0.0,WeatherDisplay:10.37,2013-05-18 01:51:00,
2013-05-17 21:56:00,54.1,43.4,30.16,North,0,0.0,0.0,67,0.00,CLR,,0.00,0.0,WeatherDisplay:10.37,2013-05-18 01:56:00,
2013-05-17 22:01:00,53.9,43.6,30.16,North,0,0.0,0.0,68,0.00,CLR,,0.00,0.0,WeatherDisplay:10.37,2013-05-18 02:01:00,
2013-05-17 22:06:00,53.6,44.0,30.16,North,0,0.0,0.0,70,0.00,CLR,,0.00,0.0,WeatherDisplay:10.37,2013-05-18 02:06:00,
2013-05-17 22:11:00,53.3,44.1,30.16,North,0,0.0,0.0,71,0.00,CLR,,0.00,0.0,WeatherDisplay:10.37,2013-05-18 02:11:00,
2013-05-17 22:16:00,53.0,44.2,30.17,North,0,0.0,0.0,72,0.00,CLR,,0.00,0.0,WeatherDisplay:10.37,2013-05-18 02:16:00,
2013-05-17 22:21:00,52.8,44.4,30.17,North,0,0.0,0.0,73,0.00,CLR,,0.00,0.0,WeatherDisplay:10.37,2013-05-18 02:21:00,
2013-05-17 22:26:00,52.6,44.5,30.17,North,0,0.0,0.0,74,0.00,CLR,,0.00,0.0,WeatherDisplay:10.37,2013-05-18 02:26:00,
2013-05-17 22:31:00,52.5,44.4,30.17,North,0,0.0,0.0,74,0.00,CLR,,0.00,0.0,WeatherDisplay:10.37,2013-05-18 02:31:00,
2013-05-17 22:36:00,52.3,44.3,30.17,North,0,0.0,0.0,74,0.00,CLR,,0.00,0.0,WeatherDisplay:10.37,2013-05-18 02:36:00,
2013-05-17 22:41:00,52.2,44.2,30.17,North,0,0.0,0.0,74,0.00,CLR,,0.00,0.0,WeatherDisplay:10.37,2013-05-18 02:41:00,
2013-05-17 22:46:00,52.1,44.4,30.17,North,0,0.0,0.0,75,0.00,CLR,,0.00,0.0,WeatherDisplay:10.37,2013-05-18 02:46:00,
2013-05-17 22:51:00,51.9,44.2,30.17,North,0,0.0,0.0,75,0.00,CLR,,0.00,0.0,WeatherDisplay:10.37,2013-05-18 02:51:00,
2013-05-17 22:56:00,51.8,44.1,30.17,North,0,0.0,0.0,75,0.00,CLR,,0.00,0.0,WeatherDisplay:10.37,2013-05-18 02:56:00,
2013-05-17 23:01:00,51.7,44.0,30.17,North,0,0.0,0.0,75,0.00,CLR,,0.00,0.0,WeatherDisplay:10.37,2013-05-18 03:01:00,
2013-05-17 23:06:00,51.5,44.2,30.17,North,0,0.0,0.0,76,0.00,CLR,,0.00,0.0,WeatherDisplay:10.37,2013-05-18 03:06:00,
2013-05-17 23:11:00,51.4,44.1,30.17,North,0,0.0,0.0,76,0.00,CLR,,0.00,0.0,WeatherDisplay:10.37,2013-05-18 03:11:00,
2013-05-17 23:16:00,51.3,44.0,30.17,North,0,0.0,0.0,76,0.00,CLR,,0.00,0.0,WeatherDisplay:10.37,2013-05-18 03:16:00,
2013-05-17 23:21:00,51.2,43.9,30.17,North,0,0.0,0.0,76,0.00,CLR,,0.00,0.0,WeatherDisplay:10.37,2013-05-18 03:21:00,
2013-05-17 23:26:00,51.0,43.7,30.17,North,0,0.0,0.0,76,0.00,CLR,,0.00,0.0,WeatherDisplay:10.37,2013-05-18 03:26:00,
2013-05-17 23:31:00,50.9,43.6,30.18,North,0,0.0,0.0,76,0.00,CLR,,0.00,0.0,WeatherDisplay:10.37,2013-05-18 03:31:00,
2013-05-17 23:36:00,50.7,43.4,30.18,North,0,0.0,0.0,76,0.00,CLR,,0.00,0.0,WeatherDisplay:10.37,2013-05-18 03:36:00,
2013-05-17 23:41:00,50.6,43.3,30.18,North,0,0.0,0.0,76,0.00,CLR,,0.00,0.0,WeatherDisplay:10.37,2013-05-18 03:41:00,
2013-05-17 23:46:00,50.5,43.6,30.18,North,0,0.0,0.0,77,0.00,CLR,,0.00,0.0,WeatherDisplay:10.37,2013-05-18 03:46:00,
2013-05-17 23:51:00,50.3,43.4,30.18,North,0,0.0,0.0,77,0.00,CLR,,0.00,0.0,WeatherDisplay:10.37,2013-05-18 03:51:00,
2013-05-17 23:56:00,50.2,43.3,30.18,North,0,0.0,0.0,77,0.00,CLR,,0.00,0.0,WeatherDisplay:10.37,2013-05-18 03:56:00,